This demonstration page uses our WeatherBlox Daily Observations layout. Learn more.

39.29038, -76.61219

Hourly Observations for October 8, 2018

Temp ( °F °C ) Dew Point ( °F °C ) Humidity (%) Winds ( mph kmh ) Pressure ( in mb ) Visibility ( mi km ) Precip ( " mm )
12:54 am 00:54 undefined 74 23.3 72 22.2 94 94 undefined N/A 30.26 1025 N/A 0 0
1:54 am 01:54 undefined 73 22.8 72 22.2 96 96 undefined N/A 30.26 1025 N/A 0 0
2:54 am 02:54 undefined 73 22.8 71 21.7 94 94 undefined N/A 30.26 1025 N/A 0 0
3:54 am 03:54 undefined 72 22.2 71 21.7 97 97 undefined N/A 30.27 1025 N/A 0 0
4:54 am 04:54 undefined 73 22.8 71 21.7 94 94 undefined N/A 30.28 1025 N/A 0 0
5:54 am 05:54 undefined 73 22.8 72 22.2 96 96 undefined N/A 30.29 1026 N/A 0 0
6:54 am 06:54 undefined 72 22.2 72 22.2 100 100 undefined N/A 30.31 1026 N/A 0 0
7:54 am 07:54 undefined 72 22.2 72 22.2 100 100 undefined N/A 30.32 1027 N/A 0 0
8:54 am 08:54 undefined 73 22.8 72 22.2 96 96 undefined N/A 30.33 1027 N/A 0 0
9:54 am 09:54 undefined 76 24.4 73 22.8 91 91 undefined N/A 30.33 1027 N/A 0 0
10:54 am 10:54 undefined 76 24.4 73 22.8 91 91 undefined N/A 30.35 1028 N/A 0 0
11:54 am 11:54 undefined 77 25 73 22.8 88 88 undefined N/A 30.35 1028 N/A 0 0
12:54 pm 12:54 undefined 80 26.7 73 22.8 79 79 undefined N/A 30.34 1027 N/A 0 0
1:54 pm 13:54 undefined 83 28.3 74 23.3 74 74 undefined N/A 30.32 1027 N/A 0 0
2:54 pm 14:54 undefined 83 28.3 73 22.8 72 72 undefined N/A 30.31 1026 N/A 0 0
3:54 pm 15:54 undefined 83 28.3 72 22.2 70 70 undefined N/A 30.3 1026 N/A 0 0
4:54 pm 16:54 undefined 80 26.7 73 22.8 79 79 undefined N/A 30.31 1026 N/A 0 0
5:54 pm 17:54 undefined 78 25.6 72 22.2 82 82 undefined N/A 30.32 1027 N/A 0 0
6:54 pm 18:54 undefined 76 24.4 72 22.2 88 88 undefined N/A 30.33 1027 N/A 0 0
7:54 pm 19:54 undefined 75 23.9 72 22.2 90 90 undefined N/A 30.34 1027 N/A 0 0
8:54 pm 20:54 undefined 75 23.9 72 22.2 90 90 undefined N/A 30.34 1027 N/A 0 0
9:54 pm 21:54 undefined 75 23.9 72 22.2 90 90 undefined N/A 30.35 1028 N/A 0 0
10:54 pm 22:54 undefined 75 23.9 72 22.2 90 90 undefined N/A 30.35 1028 N/A 0 0
11:54 pm 23:54 undefined 75 23.9 72 22.2 90 90 undefined N/A 30.35 1028 N/A 0 0

Powered by AerisWeather